[[{"header":{"parameterUnit":"m.s-1","parameterCategory":1,"la1":30.2991,"la2":30.254,"lo1":-89.0895,"lo2":-89.0444,"dy":0.0017,"dx":0.0017,"nx":28,"ny":28,"refTime":"2024-09-04T03:00:00:Z","depth":0,"parameterNumber":2,"parameterNumberName":"U-component_of_WINDS"},"data":[0,0,0,0,0,0,0,0,0,0,0,0,0,0,0,0,0,0,0,0,0,0,0,0,0,0,0,0,0,0,0,0,0,0,0,0,0,0,0,0,0,0,0,0,0,0,0,0,0,0,0,0,0,0,0,0,0,0,-8.2626,-8.2625,0,-8.2604,-8.2603,-8.2603,-8.2351,-8.2345,-8.2339,-8.2333,-8.2313,-8.2318,-8.2323,0,0,0,0,0,0,0,0,0,0,0,0,0,-8.2452,-8.2456,-8.2626,-8.2625,-8.2625,-8.2604,-8.2603,-8.2603,-8.2353,-8.2345,-8.2337,-8.233,-8.2311,-8.2317,-8.2324,0,0,0,0,0,0,0,0,0,0,0,0,0,-8.2489,-8.2458,-8.2626,-8.2498,-8.2486,-8.2604,-8.2603,-8.2603,-8.2354,-8.2345,-8.2335,-8.2326,-8.2309,-8.2317,-8.2325,-8.2565,0,0,-8.2349,-8.2353,0,0,0,0,0,0,0,0,-8.2487,-8.2495,-8.2517,-8.2507,-8.2494,-8.247,-8.2534,-8.259,-8.2357,-8.2404,-8.2333,-8.2322,-8.2373,-8.2375,-8.2392,-8.2564,-8.2563,-8.235,-8.2355,-8.2358,-8.2361,0,0,0,0,0,0,0,-8.2484,-8.2495,-8.2617,-8.2517,-8.2503,-8.2441,-8.2436,-8.2544,-8.2442,-8.2399,-8.2381,-8.2382,-8.2365,-8.2385,-8.239,-8.2562,-8.235,-8.2357,-8.2362,-8.2365,-8.2928,-8.2938,0,0,0,0,0,0,-8.2499,-8.2494,-8.2618,-8.2616,-8.2467,-8.2452,-8.2446,-8.2488,-8.244,-8.2424,-8.239,-8.237,-8.2376,-8.2381,-8.2388,-8.2664,-8.2358,-8.2366,-8.237,-8.2918,-8.293,-8.2941,0,0,0,0,0,0,-8.2497,-8.2513,-8.2618,-8.255,-8.2559,-8.2465,-8.2514,-8.2492,-8.2512,-8.2433,-8.2414,-8.2429,-8.2368,-8.2377,-8.2522,-8.266,-8.2369,-8.2377,-8.2906,-8.2922,-8.2936,-8.3221,0,0,0,0,0,0,-8.2493,-8.2513,-8.2604,-8.2554,-8.2564,-8.2754,-8.2522,-8.2499,-8.2526,-8.25,-8.2465,-8.245,-8.2362,-8.2511,-8.253,-8.2666,-8.2383,-8.2893,-8.2913,-8.2931,-8.3199,-8.3244,-8.3283,0,0,0,0,0,-8.2487,-8.2685,-8.2609,-8.2626,-8.2674,-8.2762,-8.2767,-8.2661,-8.2538,-8.2628,-8.2577,-8.2451,-8.2643,-8.2528,-8.2547,-8.2688,-8.2884,-8.2908,-8.293,-8.318,-8.3235,-8.3282,0,0,0,0,0,0,-8.2755,-8.2677,-8.2591,-8.2779,-8.2779,-8.2719,-8.2829,-8.2723,-8.2758,-8.2733,-8.26,-8.2594,-8.276,-8.2738,-8.2613,-8.2917,-8.2741,-8.2769,-8.2925,-8.2977,-8.3018,-8.3019,-8.239,0,0,0,0,0,-8.2835,-8.2913,-8.284,-8.3013,-8.3017,-8.2924,-8.2958,-8.2877,-8.2871,-8.287,-8.283,-8.283,-8.289,-8.2932,-8.2983,-8.3195,-8.3183,-8.3301,-8.3343,-8.3378,-8.3403,-8.3512,-8.3563,-8.3016,-8.3016,-8.3016,0,0,-8.3003,-8.297,-8.3027,-8.3066,-8.3056,-8.3139,-8.2926,-8.3023,-8.3083,-8.2885,-8.3019,-8.299,-8.2982,-8.3161,-8.3238,-8.3148,-8.3551,-8.3407,-8.3435,-8.3441,-8.3541,-8.3593,-8.3639,-8.3032,-8.3029,-8.3027,0,0,-8.335,-8.3334,-8.3475,-8.3469,-8.3456,-8.3393,-8.3427,-8.3384,-8.3356,-8.3489,-8.3341,-8.3412,-8.3518,-8.3517,-8.3531,-8.3879,-8.3763,-8.3899,-8.4118,-8.4226,-8.4269,-8.4307,-8.443,-8.4476,-8.3925,-8.3925,-8.3926,0,-8.356,-8.3679,-8.3561,-8.3667,-8.3689,-8.3512,-8.3654,-8.3655,-8.3661,-8.3679,-8.3578,-8.3707,-8.3689,-8.3865,-8.395,-8.3968,-8.4002,-8.3902,-8.4273,-8.4309,-8.4342,-8.4458,-8.4505,-8.3942,-8.394,-8.3938,-8.3937,0,-8.3937,-8.4022,-8.4137,-8.4146,-8.418,-8.4305,-8.4206,-8.4255,-8.417,-8.4118,-8.4255,-8.4227,-8.4269,-8.4304,-8.4224,-8.447,-8.4414,-8.4296,-8.4116,-8.4413,-8.4519,-8.4563,-8.3965,-8.3959,-8.3955,-8.3951,0,0,-8.4452,-8.4393,-8.4437,-8.4438,-8.4411,-8.4474,-8.4591,-8.463,-8.4675,-8.4685,-8.4778,-8.4872,-8.4762,-8.4778,-8.4695,-8.4791,-8.5066,-8.4659,-8.4657,-8.4735,-8.5335,-8.5424,-8.5477,-8.499,-8.4998,-8.5004,-8.5335,0,-8.4785,-8.4979,-8.4876,-8.5084,-8.516,-8.4994,-8.5094,-8.5089,-8.5044,-8.5102,-8.5051,-8.512,-8.4969,-8.4977,-8.5064,-8.5015,-8.5185,-8.4989,-8.5076,-8.508,-8.5082,-8.5533,-8.5627,-8.594,-8.5376,-8.5383,-8.5388,0,-8.52,-8.5227,-8.5442,-8.5399,-8.5427,-8.552,-8.5547,-8.5605,-8.5596,-8.5556,-8.5575,-8.5469,-8.558,-8.5404,-8.5554,-8.5424,-8.5453,-8.5435,-8.5444,-8.5447,-8.5252,-8.5547,-8.6038,-8.6085,-8.5453,-8.5448,-8.5443,0,-8.5553,-8.5642,-8.5782,-8.5788,-8.5743,-8.5811,-8.5796,-8.5777,-8.5807,-8.5832,-8.585,-8.5888,-8.5909,-8.5941,-8.5849,-8.5729,-8.6013,-8.5829,-8.5983,-8.5985,-8.6049,-8.6046,-8.6551,-8.6071,-8.607,-8.6069,-8.6068,0,-8.5936,-8.6074,-8.5939,-8.6025,-8.6175,-8.6056,-8.6207,-8.6173,-8.6158,-8.6235,-8.6094,-8.6169,-8.6043,-8.6106,-8.6035,-8.6171,-8.6182,-8.6152,-8.6132,-8.6164,-8.6168,-8.6181,-8.6157,-8.6082,-8.6079,-8.6077,-8.6074,0,-8.6354,-8.627,-8.6411,-8.6356,-8.6345,-8.6458,-8.641,-8.6488,-8.6432,-8.6531,-8.6548,-8.6461,-8.6528,-8.6439,-8.6498,-8.645,-8.6635,-8.6582,-8.6638,-8.6622,-8.6781,-8.6767,-8.731,-8.7375,-8.6856,-8.6861,-8.6865,0,-8.6604,-8.6705,-8.6661,-8.6701,-8.6694,-8.6762,-8.6791,-8.6678,-8.6715,-8.6711,-8.679,-8.6844,-8.6881,-8.6996,-8.6939,-8.6983,-8.6929,-8.7117,-8.6935,-8.6965,-8.6931,-8.6925,-8.6935,-8.7154,-8.716,-8.7165,-8.7169,0,-8.7055,-8.7007,-8.7055,-8.7089,-8.7128,-8.7149,-8.716,-8.7202,-8.7083,-8.7132,-8.7197,-8.7227,-8.7285,-8.7341,-8.737,-8.7354,-8.7243,-8.7227,-8.7265,-8.7299,-8.7326,-8.7312,-8.6738,-8.7215,-8.721,-8.7207,-8.7205,-8.7203,-8.7395,-8.7477,-8.7458,-8.7516,-8.7512,-8.7525,-8.7594,-8.7547,-8.76,-8.7638,-8.7568,-8.7652,-8.7639,-8.7666,-8.7663,-8.7727,-8.7645,-8.7701,-8.7714,-8.7729,-8.7753,-8.7318,-8.7732,-8.773,-8.7729,-8.7728,-8.7727,0,-8.7837,-8.7816,-8.7871,-8.7889,-8.7935,-8.7825,-8.7831,-8.7877,-8.7952,-8.7949,-8.7988,-8.8064,-8.8118,-8.8065,-8.8108,-8.817,-8.812,-8.8185,-8.8179,-8.8177,-8.7824,-8.7786,-8.8225,-8.8225,-8.8224,-8.8224,-8.8224,-8.8224,-8.8072,-8.8205,-8.8156,-8.8286,-8.8264,-8.8343,-8.8356,-8.8368,-8.8365,-8.8455,-8.8498,-8.8463,-8.8441,-8.8481,-8.8526,-8.8508,-8.8531,-8.8614,-8.858,-8.8251,-8.8202,-8.8155,-8.8119,-8.862,-8.8621,-8.8926,-8.8929,-8.8932]},{"header":{"parameterUnit":"m.s-1","parameterCategory":1,"la1":30.2991,"la2":30.254,"lo1":-89.0895,"lo2":-89.0444,"dy":0.0017,"dx":0.0017,"nx":28,"ny":28,"refTime":"2024-09-04T03:00:00:Z","depth":0,"parameterNumber":3,"parameterNumberName":"V-component_of_WINDS"},"data":[0,0,0,0,0,0,0,0,0,0,0,0,0,0,0,0,0,0,0,0,0,0,0,0,0,0,0,0,0,0,0,0,0,0,0,0,0,0,0,0,0,0,0,0,0,0,0,0,0,0,0,0,0,0,0,0,0,0,-1.0496,-1.0495,0,-1.041,-1.0409,-1.0408,-1.0362,-1.0362,-1.0362,-1.0362,-1.0275,-1.0273,-1.027,0,0,0,0,0,0,0,0,0,0,0,0,0,-1.0619,-1.0617,-1.0496,-1.0495,-1.0494,-1.041,-1.0409,-1.0408,-1.0362,-1.0362,-1.0362,-1.0362,-1.0276,-1.0273,-1.027,0,0,0,0,0,0,0,0,0,0,0,0,0,-1.0553,-1.0617,-1.0497,-1.0461,-1.0457,-1.0411,-1.0409,-1.0408,-1.0362,-1.0362,-1.0362,-1.0362,-1.0276,-1.0273,-1.027,-1.0252,0,0,-1.026,-1.0258,0,0,0,0,0,0,0,0,-1.0557,-1.0549,-1.0467,-1.0463,-1.0459,-1.0397,-1.0421,-1.0356,-1.0362,-1.0398,-1.0362,-1.0362,-1.0316,-1.0309,-1.0293,-1.0248,-1.0245,-1.0259,-1.0257,-1.0256,-1.0255,0,0,0,0,0,0,0,-1.0561,-1.0552,-1.0462,-1.0466,-1.0461,-1.0449,-1.0439,-1.0408,-1.0359,-1.0395,-1.0392,-1.0382,-1.0313,-1.0297,-1.0291,-1.0243,-1.0259,-1.0257,-1.0254,-1.0253,-1.0176,-1.0176,0,0,0,0,0,0,-1.0572,-1.0556,-1.0465,-1.046,-1.0508,-1.0447,-1.0436,-1.0417,-1.0359,-1.035,-1.0382,-1.038,-1.0302,-1.0295,-1.0288,-1.0261,-1.0256,-1.0253,-1.0251,-1.0176,-1.0176,-1.0176,0,0,0,0,0,0,-1.0575,-1.0564,-1.0469,-1.0507,-1.0494,-1.0445,-1.0424,-1.0415,-1.0399,-1.0349,-1.034,-1.0374,-1.0302,-1.0292,-1.0261,-1.0258,-1.0251,-1.0248,-1.0176,-1.0176,-1.0176,-1.021,0,0,0,0,0,0,-1.0578,-1.0565,-1.0559,-1.0507,-1.0492,-1.0444,-1.0423,-1.0414,-1.0393,-1.0389,-1.0339,-1.0331,-1.0301,-1.0266,-1.0257,-1.0253,-1.0246,-1.0177,-1.0176,-1.0176,-1.0209,-1.0211,-1.0213,0,0,0,0,0,-1.0583,-1.0573,-1.0559,-1.0548,-1.0483,-1.0444,-1.0435,-1.04,-1.0393,-1.0385,-1.0353,-1.0333,-1.0259,-1.0263,-1.0253,-1.0248,-1.0177,-1.0176,-1.0176,-1.0208,-1.0211,-1.0213,0,0,0,0,0,0,-1.0627,-1.0566,-1.0549,-1.0522,-1.0488,-1.0436,-1.0426,-1.0405,-1.0373,-1.0371,-1.0329,-1.0318,-1.029,-1.0266,-1.0271,-1.0226,-1.0216,-1.0214,-1.0243,-1.0246,-1.0248,-1.0254,-1.0243,0,0,0,0,0,-1.0633,-1.0607,-1.0555,-1.0536,-1.0519,-1.0475,-1.0457,-1.0433,-1.0396,-1.0382,-1.0348,-1.0313,-1.0281,-1.0262,-1.0231,-1.0205,-1.0193,-1.0196,-1.0198,-1.02,-1.0199,-1.0181,-1.0181,-1.0176,-1.0176,-1.0176,0,0,-1.0647,-1.061,-1.0596,-1.0543,-1.0514,-1.0487,-1.0464,-1.0437,-1.0416,-1.0378,-1.0346,-1.0319,-1.0277,-1.0248,-1.0233,-1.0226,-1.0197,-1.02,-1.0202,-1.02,-1.0181,-1.0181,-1.0182,-1.0176,-1.0176,-1.0176,0,0,-1.0657,-1.0627,-1.0607,-1.0577,-1.0533,-1.0503,-1.0498,-1.0448,-1.0428,-1.0395,-1.0365,-1.0339,-1.0287,-1.0258,-1.0236,-1.0231,-1.0211,-1.0222,-1.0233,-1.0216,-1.0216,-1.0216,-1.0213,-1.0213,-1.0221,-1.0221,-1.0221,0,-1.068,-1.0638,-1.0599,-1.0573,-1.055,-1.0512,-1.0491,-1.0464,-1.0412,-1.0397,-1.039,-1.0321,-1.0291,-1.0253,-1.0251,-1.0235,-1.0227,-1.0228,-1.0219,-1.0219,-1.0219,-1.0215,-1.0214,-1.0223,-1.0222,-1.0222,-1.0222,0,-1.0666,-1.0637,-1.0626,-1.0575,-1.0551,-1.0527,-1.0484,-1.0464,-1.0441,-1.0412,-1.0376,-1.0338,-1.0297,-1.0286,-1.0264,-1.0244,-1.0241,-1.0227,-1.0216,-1.0221,-1.0217,-1.0216,-1.0225,-1.0224,-1.0224,-1.0224,0,0,-1.0705,-1.063,-1.0627,-1.0602,-1.0548,-1.0525,-1.0498,-1.0457,-1.044,-1.0404,-1.038,-1.0335,-1.0321,-1.0296,-1.027,-1.0255,-1.0252,-1.0243,-1.0241,-1.0245,-1.0225,-1.0235,-1.0234,-1.0237,-1.0237,-1.0236,-1.0228,0,-1.0707,-1.0657,-1.062,-1.0585,-1.0556,-1.0519,-1.0495,-1.0459,-1.043,-1.0401,-1.0369,-1.0337,-1.0322,-1.0306,-1.029,-1.0256,-1.0247,-1.0256,-1.0214,-1.0213,-1.0225,-1.0233,-1.0244,-1.0238,-1.0226,-1.0226,-1.0226,0,-1.0704,-1.0667,-1.0629,-1.0575,-1.0562,-1.0541,-1.0499,-1.0472,-1.043,-1.0409,-1.038,-1.0352,-1.0321,-1.0312,-1.0268,-1.0275,-1.0255,-1.0235,-1.0234,-1.0229,-1.022,-1.0227,-1.0236,-1.0235,-1.0223,-1.0223,-1.0223,0,-1.0734,-1.0676,-1.0644,-1.0624,-1.0561,-1.0547,-1.0521,-1.0478,-1.0454,-1.0417,-1.0401,-1.0362,-1.034,-1.0309,-1.0271,-1.0268,-1.023,-1.0218,-1.0211,-1.0212,-1.0206,-1.0207,-1.0211,-1.0194,-1.0194,-1.0194,-1.0194,0,-1.074,-1.0718,-1.0656,-1.0637,-1.061,-1.0567,-1.0541,-1.0511,-1.0472,-1.0446,-1.0411,-1.0387,-1.0338,-1.0307,-1.0277,-1.0244,-1.0234,-1.0217,-1.0209,-1.022,-1.0222,-1.0206,-1.0206,-1.0193,-1.0193,-1.0193,-1.0194,0,-1.0771,-1.0729,-1.0691,-1.0634,-1.0618,-1.0601,-1.0551,-1.053,-1.0498,-1.0465,-1.0454,-1.0404,-1.0366,-1.0324,-1.0273,-1.0252,-1.022,-1.021,-1.0234,-1.023,-1.0225,-1.0226,-1.022,-1.0216,-1.0202,-1.0202,-1.0202,0,-1.0778,-1.0759,-1.0698,-1.0677,-1.0651,-1.0618,-1.0593,-1.0549,-1.0524,-1.0472,-1.0458,-1.0416,-1.0381,-1.0321,-1.028,-1.024,-1.0227,-1.0228,-1.0221,-1.0232,-1.0226,-1.0228,-1.0225,-1.023,-1.023,-1.0231,-1.0231,0,-1.0794,-1.0773,-1.0738,-1.0695,-1.0666,-1.0631,-1.0594,-1.0578,-1.0527,-1.0501,-1.046,-1.0433,-1.0378,-1.0337,-1.0291,-1.0263,-1.0238,-1.0233,-1.0229,-1.024,-1.0255,-1.0246,-1.0239,-1.0234,-1.0233,-1.0233,-1.0233,-1.0233,-1.0812,-1.0792,-1.0746,-1.0707,-1.0674,-1.064,-1.0616,-1.058,-1.0545,-1.0497,-1.0473,-1.0432,-1.0387,-1.0322,-1.0294,-1.0261,-1.0254,-1.0249,-1.0247,-1.0247,-1.0249,-1.026,-1.0253,-1.0253,-1.0253,-1.0253,-1.0252,0,-1.0825,-1.0793,-1.0758,-1.0706,-1.0675,-1.0652,-1.0609,-1.0585,-1.055,-1.0509,-1.0474,-1.0427,-1.0386,-1.034,-1.0296,-1.0279,-1.0266,-1.0268,-1.0269,-1.0263,-1.0259,-1.0266,-1.0279,-1.0279,-1.0279,-1.0279,-1.0279,-1.0279,-1.0829,-1.0794,-1.0767,-1.0715,-1.0682,-1.0641,-1.0618,-1.0585,-1.0553,-1.0501,-1.0466,-1.0436,-1.0393,-1.0345,-1.0306,-1.0293,-1.0278,-1.0284,-1.0268,-1.0266,-1.0264,-1.0261,-1.0268,-1.0281,-1.0281,-1.0275,-1.0275,-1.0275]}]]